When you browse on this site, cookies collect data to enhance your experience and personalize the content and advertising you see.
Visit our Privacy Policy to learn more. By continuing to use the site, you agree to this use of cookies and data.
  • In Romania
  • List of Countries
  • For 7 days
  • Water Temperature
  • Weather Map
  • Weather Widgets
  • user-avatar
    Login

    Hourly Weather Sacapa

    Today, 18 November, Monday

    Time Temperature Precipitation Wind Pressure Humidity
    00:00 +18°C° 0 mm 1 mps 696 mmHg 96%
    01:00 +16°C° 0 mm 1 mps 696 mmHg 97%
    02:00 +16°C° 0 mm 1 mps 695 mmHg 97%
    03:00 +16°C° 0 mm 1 mps 695 mmHg 97%
    04:00 +16°C° 0 mm 1 mps 695 mmHg 97%
    05:00 +16°C° 0 mm 1 mps 696 mmHg 97%
    06:00 +16°C° 0 mm 1 mps 696 mmHg 97%
    07:00 +19°C° 0 mm 1 mps 697 mmHg 90%
    08:00 +21°C° 0 mm 1 mps 698 mmHg 83%
    09:00 +22°C° 0 mm 1 mps 698 mmHg 75%
    10:00 +23°C° 0 mm 1 mps 698 mmHg 72%
    11:00 +24°C° 0 mm 2 mps 697 mmHg 69%
    12:00 +25°C° 0 mm 2 mps 696 mmHg 66%
    13:00 +25°C° 0 mm 2 mps 696 mmHg 67%
    14:00 +25°C° 0 mm 2 mps 695 mmHg 68%
    15:00 +25°C° 0 mm 2 mps 695 mmHg 69%
    16:00 +23°C° 0 mm 2 mps 695 mmHg 77%
    17:00 +21°C° 0 mm 1 mps 695 mmHg 84%
    18:00 +20°C° 0 mm 1 mps 695 mmHg 92%
    19:00 +19°C° 0 mm 1 mps 696 mmHg 93%
    20:00 +18°C° 0 mm 1 mps 696 mmHg 94%
    21:00 +16°C° 0 mm 0 mps 697 mmHg 95%
    22:00 +16°C° 0 mm 0 mps 697 mmHg 95%
    23:00 +15°C° 0 mm 0 mps 696 mmHg 95%

    Tomorrow, 19 November, Tuesday

    Time Temperature Precipitation Wind Pressure Humidity
    00:00 +15°C° 0 mm 0 mps 696 mmHg 95%
    01:00 +15°C° 0 mm 0 mps 696 mmHg 96%
    02:00 +15°C° 0 mm 0 mps 696 mmHg 96%
    03:00 +14°C° 0 mm 0 mps 696 mmHg 96%
    04:00 +14°C° 0 mm 0 mps 696 mmHg 96%
    05:00 +14°C° 0 mm 0 mps 696 mmHg 96%
    06:00 +14°C° 0 mm 0 mps 696 mmHg 96%
    07:00 +16°C° 0 mm 0 mps 697 mmHg 89%
    08:00 +20°C° 0 mm 1 mps 698 mmHg 81%
    09:00 +22°C° 0 mm 1 mps 698 mmHg 74%
    10:00 +23°C° 0 mm 1 mps 698 mmHg 70%
    11:00 +25°C° 0 mm 1 mps 698 mmHg 66%
    12:00 +26°C° 0 mm 1 mps 697 mmHg 62%
    13:00 +26°C° 0 mm 2 mps 697 mmHg 62%
    14:00 +26°C° 0 mm 2 mps 697 mmHg 62%
    15:00 +26°C° 0 mm 2 mps 696 mmHg 63%
    16:00 +24°C° 0 mm 1 mps 696 mmHg 71%
    17:00 +22°C° 0 mm 1 mps 696 mmHg 80%
    18:00 +20°C° 0 mm 1 mps 696 mmHg 89%
    19:00 +19°C° 0 mm 1 mps 697 mmHg 90%
    20:00 +19°C° 0 mm 1 mps 697 mmHg 91%
    21:00 +18°C° 0 mm 1 mps 698 mmHg 92%
    22:00 +18°C° 0 mm 1 mps 698 mmHg 93%
    23:00 +16°C° 0 mm 0 mps 697 mmHg 94%

    Day after tomorrow, 20 November, Wednesday

    Time Temperature Precipitation Wind Pressure Humidity
    00:00 +15°C° 0 mm 0 mps 697 mmHg 95%
    01:00 +15°C° 0 mm 0 mps 697 mmHg 96%
    02:00 +15°C° 0 mm 0 mps 697 mmHg 96%
    03:00 +15°C° 0 mm 0 mps 697 mmHg 97%
    04:00 +15°C° 0 mm 0 mps 697 mmHg 97%
    05:00 +15°C° 0 mm 0 mps 697 mmHg 97%
    06:00 +15°C° 0 mm 0 mps 697 mmHg 97%
    07:00 +17°C° 0 mm 0 mps 698 mmHg 89%
    08:00 +19°C° 0 mm 0 mps 698 mmHg 81%
    09:00 +24°C° 0 mm 1 mps 699 mmHg 73%
    10:00 +25°C° 0 mm 1 mps 699 mmHg 67%
    11:00 +26°C° 0 mm 1 mps 698 mmHg 62%
    12:00 +27°C° 0 mm 1 mps 698 mmHg 57%
    13:00 +27°C° 0 mm 1 mps 697 mmHg 58%
    14:00 +27°C° 0 mm 1 mps 697 mmHg 59%
    15:00 +27°C° 0 mm 2 mps 696 mmHg 60%
    16:00 +25°C° 0 mm 1 mps 696 mmHg 70%
    17:00 +23°C° 0 mm 1 mps 696 mmHg 79%
    18:00 +21°C° 0 mm 1 mps 696 mmHg 89%
    19:00 +20°C° 0 mm 1 mps 697 mmHg 91%
    20:00 +20°C° 0 mm 1 mps 697 mmHg 93%
    21:00 +17°C° 0 mm 0 mps 698 mmHg 95%
    22:00 +17°C° 0 mm 0 mps 697 mmHg 95%
    23:00 +17°C° 0 mm 0 mps 697 mmHg 95%

    21 November, Thursday

    Time Temperature Precipitation Wind Pressure Humidity
    00:00 +17°C° 0 mm 0 mps 697 mmHg 96%
    01:00 +17°C° 0 mm 0 mps 697 mmHg 96%
    02:00 +17°C° 0 mm 0 mps 696 mmHg 96%
    03:00 +17°C° 0 mm 0 mps 696 mmHg 96%
    04:00 +16°C° 0 mm 0 mps 696 mmHg 95%
    05:00 +16°C° 0 mm 0 mps 697 mmHg 95%
    06:00 +16°C° 0 mm 0 mps 697 mmHg 95%
    07:00 +18°C° 0 mm 0 mps 697 mmHg 87%
    08:00 +20°C° 0 mm 0 mps 698 mmHg 80%
    09:00 +23°C° 0 mm 0 mps 699 mmHg 72%
    10:00 +24°C° 0 mm 0 mps 698 mmHg 66%
    11:00 +28°C° 0 mm 1 mps 698 mmHg 60%
    12:00 +29°C° 0 mm 1 mps 697 mmHg 54%
    13:00 +29°C° 0 mm 1 mps 697 mmHg 54%
    14:00 +29°C° 0 mm 1 mps 696 mmHg 55%
    15:00 +29°C° 0 mm 1 mps 695 mmHg 55%
    16:00 +26°C° 0 mm 1 mps 695 mmHg 65%
    17:00 +24°C° 0 mm 1 mps 695 mmHg 75%
    18:00 +22°C° 0 mm 1 mps 695 mmHg 85%
    19:00 +19°C° 0 mm 0 mps 696 mmHg 87%
    20:00 +19°C° 0 mm 0 mps 696 mmHg 89%
    21:00 +18°C° 0 mm 0 mps 697 mmHg 91%
    22:00 +18°C° 0 mm 0 mps 697 mmHg 93%
    23:00 +18°C° 0 mm 0 mps 696 mmHg 94%

    22 November, Friday

    Time Temperature Precipitation Wind Pressure Humidity
    00:00 +17°C° 0 mm 0 mps 696 mmHg 95%
    01:00 +17°C° 0 mm 0 mps 696 mmHg 95%
    02:00 +17°C° 0 mm 0 mps 696 mmHg 94%
    03:00 +18°C° 0 mm 0 mps 696 mmHg 94%
    04:00 +17°C° 0 mm 0 mps 696 mmHg 94%
    05:00 +17°C° 0 mm 0 mps 696 mmHg 94%
    06:00 +17°C° 0 mm 0 mps 696 mmHg 94%
    07:00 +19°C° 0 mm 0 mps 697 mmHg 87%
    08:00 +21°C° 0 mm 0 mps 697 mmHg 80%
    09:00 +23°C° 0 mm 0 mps 698 mmHg 73%
    10:00 +25°C° 0 mm 0 mps 698 mmHg 67%
    11:00 +28°C° 0 mm 1 mps 697 mmHg 61%
    12:00 +30°C° 0 mm 1 mps 697 mmHg 56%
    13:00 +30°C° 0 mm 1 mps 696 mmHg 56%
    14:00 +30°C° 0 mm 1 mps 696 mmHg 57%
    15:00 +29°C° 0 mm 1 mps 695 mmHg 57%
    16:00 +27°C° 0.1 mm 1 mps 695 mmHg 66%
    17:00 +23°C° 0.1 mm 0 mps 695 mmHg 76%
    18:00 +21°C° 0.1 mm 0 mps 695 mmHg 85%
    19:00 +21°C° 0 mm 0 mps 696 mmHg 88%
    20:00 +20°C° 0 mm 0 mps 696 mmHg 90%
    21:00 +20°C° 0 mm 0 mps 697 mmHg 93%
    22:00 +19°C° 0 mm 0 mps 697 mmHg 93%
    23:00 +19°C° 0 mm 0 mps 697 mmHg 94%

    23 November, Saturday

    Time Temperature Precipitation Wind Pressure Humidity
    00:00 +19°C° 0 mm 0 mps 697 mmHg 95%
    01:00 +19°C° 0 mm 0 mps 696 mmHg 96%
    02:00 +18°C° 0 mm 0 mps 696 mmHg 96%
    03:00 +18°C° 0 mm 0 mps 695 mmHg 97%
    04:00 +18°C° 0 mm 0 mps 696 mmHg 97%
    05:00 +18°C° 0 mm 0 mps 696 mmHg 97%
    06:00 +18°C° 0 mm 0 mps 696 mmHg 97%
    07:00 +20°C° 0 mm 0 mps 697 mmHg 89%
    08:00 +22°C° 0 mm 0 mps 698 mmHg 82%
    09:00 +24°C° 0 mm 0 mps 698 mmHg 75%
    10:00 +27°C° 0 mm 1 mps 698 mmHg 69%
    11:00 +28°C° 0 mm 1 mps 698 mmHg 63%
    12:00 +30°C° 0 mm 1 mps 698 mmHg 58%
    13:00 +30°C° 0 mm 1 mps 697 mmHg 57%
    14:00 +29°C° 0 mm 2 mps 696 mmHg 57%
    15:00 +29°C° 0 mm 2 mps 696 mmHg 57%
    16:00 +27°C° 0 mm 2 mps 696 mmHg 67%
    17:00 +25°C° 0 mm 1 mps 696 mmHg 77%
    18:00 +23°C° 0 mm 1 mps 696 mmHg 86%
    19:00 +23°C° 0 mm 1 mps 697 mmHg 89%
    20:00 +22°C° 0 mm 1 mps 697 mmHg 91%
    21:00 +21°C° 0 mm 1 mps 698 mmHg 94%
    22:00 +21°C° 0 mm 1 mps 697 mmHg 94%
    23:00 +21°C° 0 mm 1 mps 697 mmHg 94%
    Show more